Flag for U.S.A. Weather past 2 weeks in Norfolk, Virginia, U.S.A.

Now
81 °F

Mostly cloudy.


Feels Like: 85 °F
Forecast: 75 / 88 °F
Wind: 9 mph from Southwest

Location: Norfolk Naval Air Station

Current Time: Jul 2, 2015 at 1:40:10 PM

Latest Report: Jul 2, 2015 at 12:59 PM


Visibility: 4 mi

Pressure: 29.88 "Hg

Humidity: 72%

Dew point: 71 °F

Location of NorfolkLocation

Historic Weather in Norfolk — Graph

°F

Norfolk temperature yesterday

Maximum temperature yesterday: 86 °F (at 3:59 PM)
Minimum temperature yesterday: 71 °F (at 12:59 AM)
Average temperature yesterday: 78 °F

Past Weeks' High & Low Weather Summary

 TemperatureHumidityPressure
High96 °F (Jun 23, 1:59 PM)97% (Jun 24, 1:59 AM)30.13 "Hg (Jun 24, 1:59 AM)
Low62 °F (Jun 29, 4:59 AM)43% (Jun 19, 1:59 PM)29.70 "Hg (Jun 28, 2:59 AM)
Average80 °F71%29.96 "Hg
* Reported Jun 17 11:59 AM — Jul 2 11:59 AM, Norfolk, Weather by CustomWeather, © 2015

Note: Actual official high and low records may vary slightly from our data, if they occured in-between our weather recording intervals... More about our weather records

Advertising

Norfolk weather history for previous 24 hours

 ConditionsComfort  
Time TempWeatherWind HumidityBarometerVisibility
11:59 AM
Thu, Jul 2
81 °FOvercast.10 mph74%29.88 "Hg4 mi
10:59 AM80 °FMore clouds than sun.8 mph76%29.89 "Hg4 mi
9:59 AM79 °FBroken clouds.7 mph79%29.90 "Hg4 mi
8:59 AM77 °FPartly sunny.9 mph82%29.91 "Hg5 mi
7:59 AM77 °FPartly sunny.7 mph82%29.90 "Hg5 mi
6:59 AM75 °FPartly sunny.7 mph88%29.89 "Hg5 mi
5:59 AM75 °FPassing clouds.5 mph88%29.88 "Hg4 mi
4:59 AM75 °FPassing clouds.8 mph85%29.88 "Hg6 mi
3:59 AM75 °FPassing clouds.6 mph85%29.90 "Hg6 mi
2:59 AM76 °FPassing clouds.6 mph82%29.91 "Hg8 mi
1:59 AM76 °FPassing clouds.5 mph82%29.92 "Hg8 mi
12:59 AM78 °FPassing clouds.10 mph74%29.93 "Hg6 mi
11:59 PM
Wed, Jul 1
77 °FPassing clouds.6 mph74%29.93 "Hg6 mi
10:59 PM78 °FPassing clouds.6 mph71%29.93 "Hg6 mi
9:59 PM77 °FPassing clouds.6 mph74%29.93 "Hg6 mi
8:59 PM79 °FScattered clouds.5 mph67%29.91 "Hg7 mi
7:59 PM81 °FScattered clouds.7 mph62%29.91 "Hg6 mi
6:59 PM83 °FScattered clouds.10 mph57%29.90 "Hg6 mi
5:59 PM85 °FHaze.12 mph51%29.88 "Hg6 mi
4:59 PM85 °FSunny.12 mph53%29.89 "Hg6 mi
3:59 PM86 °FSunny.9 mph49%29.90 "Hg6 mi
2:59 PM85 °FSunny.10 mph53%29.90 "Hg6 mi
1:59 PM85 °FSunny.7 mph53%29.91 "Hg6 mi
Weather by CustomWeather, © 2015

See weather overviewHow to use our weather pages